Location: Unspecified
(0.0000°N, 0.0000°E)
Time: 18:48:20
(UTC+00:00)

Vanguard 3 - Pass Details

Date: 19 November 2019
Orbit: 508 x 3263 km, 33.3° (Epoch: 06 December)

Event Time Altitude Azimuth Distance (km) Brightness Sun altitude
Rises 16:51:37 0° 311° (NW) 7,149 12.4 12.7°
Reaches altitude 10° 17:01:12 10° 334° (NNW) 5,753 11.6 10.4°
Maximum altitude 17:08:15 13° 359° (N) 4,994 11.0 8.7°
Drops below altitude 10° 17:14:16 10° 24° (NNE) 4,774 10.7 7.3°
Sets 17:20:27 0° 49° (NE) 5,138 10.6 5.9°
